This demonstration page uses our WeatherBlox Daily Observations layout. Learn more.

Left ArrowRight Arrow

Hourly Observations for April 27, 2020

Temp ( °F °C ) Dew Point ( °F °C ) Humidity (%) Winds ( mph kmh ) Pressure ( in mb ) Visibility ( mi km ) Precip ( " mm )
12:53 am 00:53 Clear 69 20.6 34 1.1 27 27 N 6 9 29.99 1016 10 16 0.00 0.00
1:53 am 01:53 Clear 60 15.6 44 6.7 56 56 WSW 6 9 29.99 1016 10 16 0.00 0.00
2:53 am 02:53 Cloudy 63 17.2 43 6.1 48 48 NE 3 6 30.00 1016 10 16 0.00 0.00
3:53 am 03:53 Cloudy 62 16.7 44 6.7 52 52 VRB 3 6 30.00 1016 10 16 0.00 0.00
4:53 am 04:53 Cloudy 61 16.1 46 7.8 58 58 Calm 30.01 1016 10 16 0.00 0.00
5:53 am 05:53 Cloudy 60 15.6 45 7.2 58 58 NE 3 6 30.01 1016 10 16 0.00 0.00
6:53 am 06:53 Partly Cloudy 60 15.6 47 8.3 62 62 Calm 30.04 1017 10 16 0.00 0.00
7:53 am 07:53 Partly Cloudy 62 16.7 46 7.8 56 56 VRB 3 6 30.06 1018 10 16 0.00 0.00
8:53 am 08:53 Mostly Cloudy 68 20 44 6.7 42 42 NE 5 7 30.07 1018 10 16 0.00 0.00
9:53 am 09:53 Sunny 72 22.2 46 7.8 40 40 Calm 30.08 1019 10 16 0.00 0.00
10:53 am 10:53 Sunny 76 24.4 44 6.7 32 32 Calm 30.07 1018 10 16 0.00 0.00
11:53 am 11:53 Sunny 78 25.6 45 7.2 31 31 NE 8 13 30.07 1018 10 16 0.00 0.00
12:53 pm 12:53 Sunny 80 26.7 47 8.3 31 31 NE 7 11 30.06 1018 10 16 0.00 0.00
1:53 pm 13:53 Sunny 80 26.7 48 8.9 33 33 Calm 30.05 1018 10 16 0.00 0.00
2:53 pm 14:53 Sunny 82 27.8 50 10 33 33 VRB 6 9 30.04 1017 10 16 0.00 0.00
3:53 pm 15:53 Sunny 83 28.3 51 10.6 33 33 VRB 5 7 30.03 1017 10 16 0.00 0.00
4:53 pm 16:53 Sunny 84 28.9 51 10.6 32 32 NW 3 6 30.02 1017 10 16 0.00 0.00
5:53 pm 17:53 Sunny 83 28.3 52 11.1 34 34 VRB 3 6 30.02 1017 10 16 0.00 0.00
6:53 pm 18:53 Sunny 81 27.2 50 10 34 34 WNW 7 11 30.02 1017 10 16 0.00 0.00
7:53 pm 19:53 Sunny 78 25.6 49 9.4 36 36 Calm 30.03 1017 10 16 0.00 0.00
8:53 pm 20:53 Clear 74 23.3 48 8.9 40 40 W 6 9 30.04 1017 10 16 0.00 0.00
9:53 pm 21:53 Clear 71 21.7 49 9.4 46 46 W 6 9 30.06 1018 10 16 0.00 0.00
10:53 pm 22:53 Clear 69 20.6 49 9.4 49 49 W 3 6 30.07 1018 10 16 0.00 0.00
11:53 pm 23:53 Clear 69 20.6 49 9.4 49 49 WNW 3 6 30.07 1018 10 16 0.00 0.00

Powered by AerisWeather